[[{"header":{"parameterUnit":"m.s-1","parameterCategory":2,"la1":30.2991,"la2":30.254,"lo1":-89.0895,"lo2":-89.0444,"dy":0.0017,"dx":0.0017,"nx":28,"ny":28,"refTime":"2025-11-21T09:00:00:Z","depth":"0","parameterNumber":2,"parameterNumberName":"U-component_of_CURRENTS"},"data":[0,0,0,0,0,0,0,0,0,0,0,0,0,0,0,0,0,0,0,0,0,0,0,0,0,0,0,0,0,0,0,0,0,0,0,0,0,0,0,0,0,0,0,0,0,0,0,0,0,0,0,0,0,0,0,0,0,0,0.1503,0.1503,0,0.1498,0.1498,0.1498,0.149,0.149,0.149,0.149,0.15,0.1501,0.1501,0,0,0,0,0,0,0,0,0,0,0,0,0,0.1505,0.1505,0.1503,0.1503,0.1503,0.1498,0.1498,0.1498,0.149,0.149,0.149,0.1489,0.15,0.1501,0.1501,0,0,0,0,0,0,0,0,0,0,0,0,0,0.1503,0.1505,0.1503,0.1498,0.1497,0.1498,0.1498,0.1498,0.149,0.149,0.149,0.1489,0.15,0.1501,0.1501,0.1512,0,0,0.1504,0.1504,0,0,0,0,0,0,0,0,0.1503,0.1503,0.1499,0.1498,0.1497,0.1494,0.1503,0.1503,0.149,0.1494,0.149,0.1489,0.1499,0.15,0.1501,0.1512,0.1513,0.1504,0.1504,0.1504,0.1505,0,0,0,0,0,0,0,0.1503,0.1503,0.1502,0.1498,0.1498,0.1495,0.1495,0.1503,0.1499,0.1493,0.1493,0.1491,0.1499,0.15,0.1501,0.1513,0.1504,0.1504,0.1505,0.1505,0.1561,0.1562,0,0,0,0,0,0,0.1503,0.1504,0.1502,0.1501,0.1499,0.1495,0.1495,0.1496,0.1499,0.1498,0.1491,0.1491,0.1499,0.15,0.1501,0.1536,0.1504,0.1505,0.1505,0.156,0.1562,0.1563,0,0,0,0,0,0,0.1503,0.1503,0.1502,0.1502,0.1501,0.1496,0.1497,0.1496,0.1498,0.1497,0.1497,0.1494,0.1499,0.15,0.1518,0.1536,0.1505,0.1506,0.1559,0.1561,0.1562,0.1593,0,0,0,0,0,0,0.1503,0.1503,0.1506,0.1502,0.1501,0.1511,0.1497,0.1496,0.1497,0.1496,0.15,0.15,0.1499,0.1517,0.1519,0.1536,0.1507,0.1558,0.156,0.1562,0.159,0.1595,0.1599,0,0,0,0,0,0.1504,0.1506,0.1506,0.1506,0.1504,0.1511,0.1511,0.1506,0.1498,0.1506,0.1509,0.15,0.1531,0.1519,0.152,0.1538,0.1557,0.1559,0.1561,0.1588,0.1594,0.1599,0,0,0,0,0,0,0.1508,0.1506,0.1505,0.1507,0.1513,0.151,0.1512,0.1509,0.1517,0.1514,0.1512,0.1514,0.1539,0.1536,0.1522,0.1562,0.1543,0.1546,0.1563,0.1569,0.1573,0.1566,0.1507,0,0,0,0,0,0.1511,0.1514,0.1514,0.1519,0.152,0.1517,0.1519,0.1516,0.152,0.1522,0.1526,0.1533,0.1551,0.1556,0.1568,0.1587,0.1588,0.1601,0.1605,0.1609,0.1605,0.1645,0.1653,0.1571,0.1571,0.1571,0,0,0.1512,0.1514,0.1514,0.152,0.1521,0.1529,0.1518,0.1522,0.1531,0.1523,0.1539,0.155,0.156,0.1585,0.1596,0.1583,0.1631,0.1612,0.1615,0.1609,0.1649,0.1657,0.1664,0.1572,0.1572,0.1572,0,0,0.1519,0.152,0.1524,0.1531,0.1535,0.1538,0.1541,0.1542,0.1545,0.1563,0.1565,0.1589,0.1604,0.1621,0.163,0.1667,0.1656,0.1669,0.1681,0.172,0.1727,0.1734,0.1732,0.1737,0.1667,0.1667,0.1667,0,0.1524,0.1527,0.1529,0.1536,0.1541,0.1543,0.1551,0.1559,0.1568,0.1576,0.1573,0.1616,0.1624,0.1662,0.1672,0.1678,0.1681,0.1659,0.1726,0.1732,0.1738,0.1735,0.1741,0.1669,0.1669,0.1669,0.1668,0,0.153,0.1536,0.154,0.1552,0.1562,0.1569,0.1579,0.1591,0.1596,0.1604,0.1641,0.1661,0.1684,0.1697,0.1693,0.1739,0.1721,0.173,0.1711,0.1748,0.1742,0.1748,0.1671,0.1671,0.167,0.167,0,0,0.1533,0.1542,0.1543,0.1549,0.1568,0.1575,0.1598,0.1618,0.1632,0.1653,0.168,0.1716,0.1723,0.1734,0.1743,0.1772,0.1812,0.1762,0.1764,0.1756,0.1869,0.177,0.1766,0.1835,0.1837,0.1838,0.1842,0,0.1539,0.1549,0.1556,0.1573,0.1579,0.1594,0.1616,0.1636,0.1657,0.1685,0.1714,0.1744,0.1739,0.1755,0.1786,0.1814,0.1831,0.1808,0.1837,0.1836,0.1742,0.1771,0.1637,0.1622,0.1847,0.1848,0.1849,0,0.1539,0.1547,0.1561,0.1579,0.1583,0.1597,0.1631,0.1651,0.1691,0.1709,0.1745,0.1764,0.181,0.1804,0.1864,0.1848,0.1853,0.1868,0.187,0.177,0.1749,0.1625,0.1624,0.1536,0.1858,0.1857,0.1856,0,0.1532,0.1547,0.1559,0.1565,0.1592,0.1602,0.1617,0.1655,0.1679,0.1724,0.175,0.1801,0.1833,0.1867,0.1888,0.1881,0.1945,0.1944,0.1855,0.1847,0.1732,0.171,0.1644,0.1979,0.1979,0.1979,0.1979,0,0.1532,0.1539,0.1553,0.1559,0.1577,0.1594,0.1623,0.1645,0.1689,0.1723,0.1759,0.1797,0.1854,0.1892,0.1903,0.1889,0.1959,0.1852,0.1848,0.1735,0.1715,0.1633,0.1612,0.1979,0.1979,0.1979,0.1979,0,0.1523,0.1535,0.1547,0.1568,0.1575,0.1586,0.1621,0.1644,0.1683,0.173,0.1746,0.1809,0.1846,0.188,0.1934,0.1896,0.1824,0.1878,0.1716,0.1691,0.149,0.1476,0.1396,0.1374,0.1766,0.1764,0.1762,0,0.1521,0.1527,0.1546,0.1559,0.1568,0.1588,0.1606,0.164,0.1667,0.1735,0.1758,0.1803,0.1827,0.1847,0.1788,0.1761,0.1745,0.1614,0.1572,0.145,0.1434,0.142,0.1409,0.1431,0.1427,0.1423,0.142,0,0.152,0.1527,0.1536,0.1557,0.1573,0.1593,0.1614,0.1635,0.168,0.171,0.1753,0.1774,0.1751,0.1647,0.1586,0.1563,0.149,0.1533,0.1469,0.1207,0.1128,0.1113,0.1439,0.1387,0.1391,0.1393,0.1395,0.1396,0.152,0.1523,0.1536,0.1552,0.1571,0.1586,0.1585,0.1609,0.1634,0.1641,0.1702,0.1658,0.1518,0.1396,0.1365,0.1147,0.1246,0.1064,0.107,0.1077,0.101,0.1233,0.114,0.1141,0.1143,0.1144,0.1146,0,0.1517,0.1518,0.1532,0.1545,0.1547,0.1565,0.1581,0.1565,0.1561,0.1541,0.1544,0.134,0.1176,0.105,0.0786,0.0683,0.0703,0.0658,0.0615,0.0643,0.0878,0.0814,0.0569,0.0569,0.0569,0.0569,0.0569,0.0569,0.1516,0.152,0.1518,0.1515,0.1518,0.1495,0.1489,0.1467,0.143,0.1297,0.1143,0.107,0.0861,0.0553,0.0336,0.0333,0.0329,0.0267,0.0358,0.0499,0.0538,0.0575,0.051,0.0205,0.0205,0.0079,0.0078,0.0077]},{"header":{"parameterUnit":"m.s-1","parameterCategory":2,"la1":30.2991,"la2":30.254,"lo1":-89.0895,"lo2":-89.0444,"dy":0.0017,"dx":0.0017,"nx":28,"ny":28,"refTime":"2025-11-21T09:00:00:Z","depth":"0","parameterNumber":3,"parameterNumberName":"V-component_of_CURRENTS"},"data":[0,0,0,0,0,0,0,0,0,0,0,0,0,0,0,0,0,0,0,0,0,0,0,0,0,0,0,0,0,0,0,0,0,0,0,0,0,0,0,0,0,0,0,0,0,0,0,0,0,0,0,0,0,0,0,0,0,0,-0.0061,-0.0061,0,-0.0045,-0.0045,-0.0045,-0.0042,-0.0042,-0.0042,-0.0042,-0.0037,-0.0037,-0.0037,0,0,0,0,0,0,0,0,0,0,0,0,0,-0.0085,-0.0085,-0.0061,-0.0061,-0.006,-0.0045,-0.0045,-0.0045,-0.0042,-0.0042,-0.0042,-0.0042,-0.0037,-0.0037,-0.0037,0,0,0,0,0,0,0,0,0,0,0,0,0,-0.0074,-0.0085,-0.0061,-0.0056,-0.0055,-0.0045,-0.0045,-0.0045,-0.0042,-0.0042,-0.0042,-0.0042,-0.0037,-0.0037,-0.0037,-0.0036,0,0,-0.0036,-0.0036,0,0,0,0,0,0,0,0,-0.0075,-0.0074,-0.0057,-0.0056,-0.0055,-0.0044,-0.0052,-0.0042,-0.0042,-0.0049,-0.0042,-0.0042,-0.004,-0.0039,-0.0038,-0.0036,-0.0036,-0.0036,-0.0036,-0.0036,-0.0036,0,0,0,0,0,0,0,-0.0076,-0.0074,-0.0056,-0.0057,-0.0056,-0.0053,-0.0052,-0.005,-0.0046,-0.0048,-0.0048,-0.0043,-0.0039,-0.0039,-0.0038,-0.0036,-0.0036,-0.0036,-0.0036,-0.0036,-0.0029,-0.0029,0,0,0,0,0,0,-0.0074,-0.0075,-0.0057,-0.0056,-0.0063,-0.0053,-0.0051,-0.0049,-0.0046,-0.0045,-0.0043,-0.0043,-0.0039,-0.0038,-0.0038,-0.003,-0.0036,-0.0036,-0.0036,-0.0029,-0.0029,-0.0029,0,0,0,0,0,0,-0.0075,-0.0073,-0.0057,-0.0064,-0.0061,-0.0052,-0.005,-0.0049,-0.0048,-0.0042,-0.0041,-0.0043,-0.0039,-0.0038,-0.0033,-0.003,-0.0036,-0.0036,-0.0029,-0.0029,-0.0029,-0.0019,0,0,0,0,0,0,-0.0076,-0.0074,-0.0074,-0.0064,-0.0061,-0.005,-0.005,-0.0049,-0.0044,-0.0044,-0.0041,-0.0041,-0.0039,-0.0033,-0.0033,-0.003,-0.0036,-0.0029,-0.0029,-0.0029,-0.0019,-0.0018,-0.0018,0,0,0,0,0,-0.0077,-0.0075,-0.0074,-0.0072,-0.0061,-0.005,-0.0048,-0.0043,-0.0044,-0.0043,-0.0039,-0.0041,-0.0032,-0.0033,-0.0033,-0.003,-0.0029,-0.0029,-0.0029,-0.002,-0.0018,-0.0018,0,0,0,0,0,0,-0.0085,-0.0074,-0.0073,-0.0068,-0.006,-0.0049,-0.0045,-0.0043,-0.004,-0.004,-0.0038,-0.0037,-0.0033,-0.0033,-0.0034,-0.0028,-0.0032,-0.0031,-0.0025,-0.0024,-0.0023,-0.0016,-0.0035,0,0,0,0,0,-0.0088,-0.0083,-0.0072,-0.0068,-0.0063,-0.0056,-0.0052,-0.0047,-0.0041,-0.0039,-0.0037,-0.0035,-0.0032,-0.0029,-0.0027,-0.0023,-0.0014,-0.0021,-0.002,-0.002,-0.0014,0.0005,0.0009,-0.0028,-0.0028,-0.0028,0,0,-0.009,-0.0082,-0.008,-0.0069,-0.0063,-0.0052,-0.0054,-0.0045,-0.0035,-0.0039,-0.0029,-0.0032,-0.003,-0.0024,-0.0023,-0.0024,-0.0006,-0.0019,-0.0019,-0.0013,0.0006,0.001,0.0013,-0.0028,-0.0028,-0.0028,0,0,-0.0084,-0.0085,-0.0076,-0.0069,-0.0056,-0.0051,-0.0048,-0.0038,-0.0033,-0.0024,-0.0025,-0.0025,-0.002,-0.0017,-0.0016,-0.001,-0.0003,-0.0012,0.0,0.0019,0.0022,0.0025,0.0037,0.0041,-0.001,-0.001,-0.001,0,-0.0089,-0.0075,-0.0073,-0.006,-0.0051,-0.0049,-0.0036,-0.003,-0.002,-0.0013,-0.0018,-0.001,-0.0015,-0.0003,-0.0004,-0.0007,0.0004,-0.0003,0.0021,0.0024,0.0027,0.0038,0.0043,-0.001,-0.001,-0.001,-0.001,0,-0.0072,-0.0063,-0.0057,-0.0041,-0.0033,-0.0022,-0.0011,-0.0006,-0.0003,0.0004,0.0014,0.0009,0.0017,0.001,0.0005,0.0021,0.0022,0.0019,0.002,0.0032,0.0042,0.0047,-0.0009,-0.0009,-0.0009,-0.0009,0,0,-0.0073,-0.005,-0.0047,-0.0035,-0.0021,-0.001,0.0003,0.002,0.0033,0.0035,0.0055,0.0047,0.0044,0.0045,0.0037,0.0046,0.0067,0.0042,0.0042,0.0056,0.0108,0.0119,0.0125,0.0072,0.0073,0.0074,0.0106,0,-0.006,-0.0033,-0.0025,-0.0001,0.0014,0.0019,0.0033,0.0046,0.0054,0.0072,0.0069,0.0081,0.0059,0.0062,0.0068,0.0071,0.008,0.0059,0.0092,0.0093,0.0104,0.0131,0.016,0.0192,0.011,0.0111,0.0111,0,-0.0042,-0.0026,0.0,0.0025,0.0032,0.0044,0.0068,0.0082,0.0101,0.0108,0.0118,0.0119,0.013,0.0109,0.0127,0.0117,0.0114,0.0112,0.0113,0.0125,0.0113,0.0168,0.0204,0.022,0.0118,0.0118,0.0117,0,-0.0034,-0.0007,0.0016,0.0024,0.0049,0.0061,0.0074,0.0093,0.0112,0.0134,0.0151,0.0162,0.0177,0.0177,0.017,0.0154,0.0194,0.0172,0.0178,0.0178,0.0211,0.0213,0.0271,0.0187,0.0187,0.0187,0.0187,0,-0.0019,-0.0002,0.0021,0.0034,0.0061,0.0073,0.0103,0.0115,0.0141,0.0173,0.0172,0.0204,0.0196,0.0215,0.0197,0.0212,0.0219,0.0191,0.0194,0.0214,0.0216,0.0237,0.0234,0.0189,0.0188,0.0188,0.0188,0,-0.0013,0.0002,0.0028,0.0056,0.0066,0.0085,0.0121,0.0144,0.0163,0.0207,0.0218,0.0248,0.0283,0.0274,0.0284,0.0256,0.0278,0.0257,0.0278,0.0283,0.0293,0.0289,0.0348,0.0372,0.0271,0.0271,0.0272,0,-0.0006,0.0008,0.0043,0.006,0.0074,0.0103,0.0126,0.0152,0.018,0.024,0.0266,0.0313,0.0367,0.0386,0.0357,0.0346,0.0331,0.0335,0.0304,0.0312,0.031,0.0304,0.0318,0.0348,0.0349,0.035,0.035,0,0.0002,0.0014,0.0038,0.0073,0.01,0.0133,0.0169,0.0196,0.0237,0.0289,0.0366,0.0419,0.0451,0.0481,0.0454,0.0424,0.0366,0.0351,0.0365,0.0385,0.038,0.0397,0.0299,0.0358,0.0357,0.0357,0.0356,0.0356,0.0008,0.0024,0.0054,0.0089,0.0122,0.0163,0.02,0.0251,0.0318,0.042,0.045,0.056,0.0573,0.0563,0.0524,0.0463,0.0444,0.0433,0.043,0.0424,0.0447,0.0362,0.0419,0.0418,0.0418,0.0418,0.0417,0,0.0014,0.0035,0.0068,0.0112,0.0152,0.0168,0.0231,0.0283,0.0379,0.0497,0.0592,0.0683,0.0708,0.0668,0.0591,0.0551,0.0528,0.0524,0.0527,0.0539,0.0475,0.0478,0.0546,0.0546,0.0546,0.0546,0.0546,0.0546,0.0019,0.0046,0.0066,0.0129,0.0165,0.0226,0.0269,0.036,0.0455,0.0624,0.0722,0.0785,0.0765,0.0705,0.065,0.0622,0.0621,0.0604,0.0602,0.0556,0.0547,0.0538,0.0542,0.0622,0.0623,0.0683,0.0683,0.0684]}],[{"header":{"parameterUnit":"m.s-1","parameterCategory":2,"la1":30.2991,"la2":30.254,"lo1":-89.0895,"lo2":-89.0444,"dy":0.0017,"dx":0.0017,"nx":28,"ny":28,"refTime":"2025-11-21T09:00:00:Z","depth":"2","parameterNumber":2,"parameterNumberName":"U-component_of_CURRENTS"},"data":[0,0,0,0,0,0,0,0,0,0,0,0,0,0,0,0,0,0,0,0,0,0,0,0,0,0,0,0,0,0,0,0,0,0,0,0,0,0,0,0,0,0,0,0,0,0,0,0,0,0,0,0,0,0,0,0,0,0,0.086,0.086,0,0.0849,0.0849,0.0848,0.0845,0.0845,0.0846,0.0846,0.0879,0.088,0.088,0,0,0,0,0,0,0,0,0,0,0,0,0,0.0846,0.0846,0.086,0.086,0.086,0.0849,0.0849,0.0848,0.0845,0.0845,0.0846,0.0846,0.0879,0.0879,0.088,0,0,0,0,0,0,0,0,0,0,0,0,0,0.0842,0.0846,0.086,0.0861,0.0861,0.085,0.0849,0.0848,0.0845,0.0845,0.0846,0.0847,0.0879,0.0879,0.088,0.0871,0,0,0.0882,0.0883,0,0,0,0,0,0,0,0,0.0842,0.0841,0.086,0.0861,0.0861,0.0853,0.0856,0.086,0.0844,0.0846,0.0846,0.0847,0.0877,0.0878,0.0867,0.0873,0.0874,0.0882,0.0883,0.0883,0.0883,0,0,0,0,0,0,0,0.0842,0.0842,0.0851,0.0861,0.0861,0.0851,0.0851,0.0856,0.0855,0.0846,0.0847,0.0852,0.0877,0.0867,0.0868,0.0874,0.0882,0.0883,0.0883,0.0884,0.093,0.0931,0,0,0,0,0,0,0.0853,0.0842,0.0852,0.0851,0.0858,0.0851,0.0851,0.0851,0.0854,0.0856,0.0852,0.0852,0.0865,0.0867,0.087,0.0902,0.0883,0.0884,0.0884,0.0929,0.093,0.0931,0,0,0,0,0,0,0.0853,0.0854,0.0852,0.085,0.085,0.0852,0.0851,0.0851,0.0855,0.0859,0.0861,0.0859,0.0866,0.0869,0.0892,0.0901,0.0884,0.0885,0.0928,0.0929,0.093,0.0939,0,0,0,0,0,0,0.0852,0.0853,0.0855,0.0851,0.0851,0.0859,0.0851,0.085,0.0859,0.0859,0.0866,0.0868,0.0866,0.0891,0.0893,0.0902,0.0885,0.0927,0.0929,0.093,0.0938,0.094,0.0942,0,0,0,0,0,0.0852,0.0855,0.0854,0.0856,0.0853,0.086,0.0858,0.0858,0.0859,0.0863,0.0872,0.0869,0.0902,0.0892,0.0894,0.0904,0.0926,0.0928,0.093,0.0936,0.094,0.0942,0,0,0,0,0,0,0.0854,0.0855,0.0855,0.0859,0.0865,0.0861,0.0866,0.0865,0.0872,0.0876,0.0878,0.0881,0.0911,0.0907,0.0896,0.0923,0.0914,0.0917,0.0919,0.0922,0.0924,0.0943,0.0886,0,0,0,0,0,0.0855,0.0856,0.0859,0.0865,0.087,0.0869,0.0871,0.0871,0.0879,0.0881,0.0886,0.0896,0.0915,0.0919,0.0934,0.0942,0.095,0.0951,0.0953,0.0955,0.0973,0.1001,0.1008,0.0937,0.0937,0.0937,0,0,0.0857,0.086,0.086,0.0866,0.0869,0.0875,0.0871,0.0881,0.0889,0.0885,0.0899,0.0911,0.0924,0.094,0.0951,0.0938,0.0975,0.0958,0.0959,0.0976,0.1004,0.1011,0.1017,0.0938,0.0938,0.0938,0,0,0.0865,0.0868,0.087,0.0877,0.0888,0.0887,0.0895,0.0896,0.0901,0.0916,0.0922,0.0945,0.0957,0.0968,0.0977,0.1003,0.0997,0.1001,0.1016,0.1042,0.1049,0.1054,0.1049,0.1055,0.099,0.099,0.099,0,0.0869,0.0871,0.0874,0.0882,0.0889,0.0896,0.0903,0.091,0.0918,0.0925,0.0929,0.0964,0.0975,0.1002,0.1014,0.101,0.1013,0.0999,0.1045,0.1051,0.1057,0.1051,0.1057,0.099,0.099,0.099,0.099,0,0.0874,0.088,0.0888,0.0896,0.0904,0.0914,0.0927,0.0934,0.0943,0.0949,0.0984,0.1001,0.1022,0.1026,0.1031,0.107,0.1053,0.1053,0.1036,0.1065,0.1056,0.1062,0.0991,0.0991,0.0991,0.0991,0,0,0.0876,0.0886,0.089,0.0894,0.0912,0.0918,0.0937,0.0952,0.0967,0.0984,0.1007,0.1047,0.1057,0.107,0.1073,0.1095,0.113,0.1091,0.1092,0.1082,0.1168,0.1077,0.1074,0.1135,0.1137,0.1138,0.1136,0,0.0881,0.0887,0.0895,0.091,0.0914,0.0928,0.0948,0.0964,0.0982,0.1005,0.1034,0.1064,0.1072,0.1084,0.1112,0.113,0.1151,0.113,0.1146,0.1146,0.1059,0.108,0.096,0.0942,0.1142,0.1143,0.1144,0,0.0885,0.0887,0.0894,0.0911,0.0917,0.0932,0.0957,0.0974,0.1009,0.1025,0.1057,0.108,0.1119,0.1127,0.1175,0.1158,0.1176,0.1187,0.1187,0.111,0.1067,0.0952,0.0945,0.1153,0.1152,0.1152,0.1151,0,0.0877,0.089,0.0893,0.0899,0.092,0.0933,0.0948,0.0981,0.1001,0.104,0.1061,0.1103,0.1134,0.1165,0.1194,0.1187,0.1242,0.1229,0.1162,0.1154,0.1061,0.1042,0.1283,0.1283,0.1283,0.1283,0.1283,0,0.0876,0.0881,0.0891,0.0896,0.0911,0.093,0.0955,0.0976,0.1015,0.1038,0.1076,0.1096,0.1154,0.1186,0.1201,0.119,0.1247,0.1174,0.1156,0.1056,0.1037,0.1235,0.1229,0.1283,0.1283,0.1283,0.1283,0,0.0866,0.0872,0.0876,0.0896,0.0908,0.0918,0.0956,0.0974,0.1013,0.1044,0.106,0.1109,0.1124,0.1164,0.1209,0.119,0.1192,0.1182,0.1042,0.1008,0.1079,0.1074,0.1087,0.1084,0.1081,0.1079,0.1077,0,0.0857,0.0856,0.0874,0.088,0.0892,0.0911,0.0929,0.0968,0.0985,0.1035,0.1047,0.1084,0.1078,0.109,0.1061,0.1045,0.1133,0.094,0.091,0.1081,0.1063,0.1062,0.1061,0.0783,0.0779,0.0775,0.0773,0,0.0844,0.0851,0.0862,0.0863,0.088,0.089,0.0918,0.0928,0.0968,0.0989,0.0999,0.0997,0.0981,0.0892,0.0876,0.0854,0.0922,0.0868,0.1107,0.0842,0.0792,0.0775,0.0784,0.0743,0.0746,0.0748,0.075,0.0751,0.0843,0.0839,0.0846,0.0851,0.0859,0.0858,0.0854,0.0871,0.0878,0.0874,0.0904,0.085,0.083,0.0705,0.0667,0.0631,0.0707,0.0677,0.0689,0.0704,0.0661,0.0608,0.0515,0.0517,0.0518,0.0519,0.052,0,0.0824,0.0827,0.083,0.0831,0.0815,0.0836,0.0836,0.0802,0.0775,0.0763,0.0741,0.0612,0.0523,0.0516,0.0397,0.0372,0.0388,0.0361,0.0385,0.0413,0.0438,0.0384,0.0164,0.0163,0.0162,0.0162,0,0,0.0818,0.0807,0.0802,0.0777,0.0782,0.0752,0.0736,0.0685,0.0644,0.0555,0.0503,0.0499,0.0489,0.0336,0.0291,0.0214,0.0321,0.019,0.047,0.0527,0.0552,0.0603,0.0548,0,0,0,0,0]},{"header":{"parameterUnit":"m.s-1","parameterCategory":2,"la1":30.2991,"la2":30.254,"lo1":-89.0895,"lo2":-89.0444,"dy":0.0017,"dx":0.0017,"nx":28,"ny":28,"refTime":"2025-11-21T09:00:00:Z","depth":"2","parameterNumber":3,"parameterNumberName":"V-component_of_CURRENTS"},"data":[0,0,0,0,0,0,0,0,0,0,0,0,0,0,0,0,0,0,0,0,0,0,0,0,0,0,0,0,0,0,0,0,0,0,0,0,0,0,0,0,0,0,0,0,0,0,0,0,0,0,0,0,0,0,0,0,0,0,0.0071,0.0071,0,0.009,0.009,0.009,0.009,0.009,0.0089,0.0089,0.0088,0.0088,0.0089,0,0,0,0,0,0,0,0,0,0,0,0,0,0.0043,0.0043,0.0071,0.0071,0.0071,0.009,0.009,0.009,0.009,0.009,0.0089,0.0089,0.0088,0.0088,0.0089,0,0,0,0,0,0,0,0,0,0,0,0,0,0.0058,0.0043,0.0071,0.0073,0.0073,0.009,0.009,0.009,0.009,0.009,0.0089,0.0089,0.0088,0.0088,0.0089,0.0101,0,0,0.009,0.009,0,0,0,0,0,0,0,0,0.0057,0.0059,0.0072,0.0073,0.0073,0.0086,0.008,0.0093,0.009,0.0084,0.0089,0.0088,0.0085,0.0086,0.0092,0.0101,0.0101,0.009,0.009,0.009,0.009,0,0,0,0,0,0,0,0.0056,0.0059,0.0079,0.0073,0.0073,0.0075,0.0077,0.0082,0.0088,0.0085,0.0085,0.0086,0.0086,0.0092,0.0092,0.0101,0.009,0.009,0.009,0.0091,0.0112,0.0112,0,0,0,0,0,0,0.0053,0.0058,0.0079,0.008,0.0063,0.0076,0.0078,0.0083,0.0088,0.0088,0.0086,0.0086,0.0091,0.0091,0.0092,0.0104,0.009,0.0091,0.0091,0.0112,0.0112,0.0113,0,0,0,0,0,0,0.0052,0.0055,0.0078,0.0068,0.0071,0.0077,0.0083,0.0084,0.0085,0.0089,0.0089,0.0086,0.0091,0.0091,0.0095,0.0104,0.0091,0.0091,0.0111,0.0112,0.0112,0.013,0,0,0,0,0,0,0.0051,0.0054,0.0057,0.0068,0.0071,0.0088,0.0083,0.0084,0.0087,0.0086,0.0089,0.0089,0.009,0.0095,0.0096,0.0104,0.0092,0.0111,0.0112,0.0112,0.0129,0.0131,0.0133,0,0,0,0,0,0.005,0.0057,0.0057,0.0059,0.0075,0.0088,0.009,0.0093,0.0087,0.0092,0.0092,0.0088,0.0099,0.0095,0.0097,0.0105,0.0111,0.0111,0.0112,0.0128,0.0131,0.0133,0,0,0,0,0,0,0.0045,0.0058,0.0058,0.0068,0.0076,0.0087,0.0091,0.0091,0.0096,0.0094,0.0093,0.0093,0.01,0.01,0.0096,0.0113,0.0104,0.0105,0.0116,0.0118,0.012,0.0123,0.0092,0,0,0,0,0,0.0045,0.0055,0.0064,0.0073,0.0075,0.0082,0.0086,0.009,0.0095,0.0097,0.0099,0.0101,0.0105,0.0109,0.0112,0.0123,0.0123,0.0129,0.0131,0.0133,0.0136,0.0143,0.0146,0.0115,0.0115,0.0115,0,0,0.0044,0.0053,0.0058,0.0072,0.0077,0.009,0.0083,0.0092,0.0103,0.0096,0.0108,0.0106,0.0109,0.012,0.0124,0.0121,0.0141,0.0134,0.0135,0.0137,0.0144,0.0147,0.0149,0.0115,0.0115,0.0115,0,0,0.0052,0.0055,0.0068,0.0076,0.0086,0.0093,0.0094,0.0105,0.0109,0.012,0.0117,0.012,0.0128,0.0135,0.0138,0.0152,0.0149,0.0152,0.0168,0.0174,0.0177,0.0179,0.0183,0.0186,0.0156,0.0156,0.0156,0,0.005,0.0068,0.0072,0.0086,0.0094,0.0094,0.0109,0.0116,0.0127,0.0135,0.0125,0.0141,0.0137,0.0156,0.0158,0.0157,0.0158,0.0159,0.0177,0.0179,0.0181,0.0185,0.0187,0.0157,0.0157,0.0157,0.0156,0,0.007,0.0082,0.0089,0.0108,0.0118,0.013,0.0139,0.0148,0.0148,0.0157,0.017,0.0168,0.0178,0.0177,0.017,0.0187,0.0182,0.0176,0.0172,0.0186,0.0188,0.0191,0.0158,0.0158,0.0157,0.0157,0,0,0.0072,0.0099,0.01,0.0114,0.0131,0.0143,0.0159,0.0179,0.0193,0.0197,0.0218,0.0217,0.0213,0.0216,0.021,0.0214,0.0223,0.0201,0.02,0.0205,0.0237,0.0237,0.0239,0.022,0.0221,0.0221,0.0233,0,0.0086,0.0118,0.0127,0.0155,0.017,0.0177,0.0195,0.0211,0.022,0.0239,0.0238,0.0252,0.023,0.0235,0.0234,0.023,0.023,0.022,0.0222,0.0223,0.0221,0.0243,0.0239,0.025,0.0236,0.0236,0.0236,0,0.0103,0.0124,0.0154,0.0184,0.019,0.0205,0.0235,0.0252,0.0274,0.0281,0.0293,0.0292,0.0301,0.0275,0.0276,0.0271,0.0253,0.0244,0.0244,0.024,0.0227,0.0234,0.0255,0.024,0.024,0.0239,0.0239,0,0.0108,0.0141,0.0168,0.0178,0.021,0.0224,0.0239,0.0264,0.0286,0.0309,0.0328,0.0334,0.0344,0.0327,0.0304,0.0292,0.0302,0.0285,0.0268,0.0267,0.0263,0.0262,0.0279,0.0279,0.0279,0.0279,0.0279,0,0.0123,0.0142,0.0172,0.0187,0.0218,0.0234,0.027,0.0284,0.0315,0.0354,0.0349,0.0382,0.0356,0.0359,0.0326,0.0311,0.032,0.0277,0.0274,0.0269,0.0268,0.0256,0.0253,0.0279,0.0279,0.0279,0.0279,0,0.0126,0.0145,0.0179,0.0213,0.0222,0.0246,0.0288,0.0318,0.034,0.0392,0.0402,0.0423,0.0433,0.0403,0.0384,0.0347,0.0327,0.0313,0.0308,0.0304,0.028,0.0278,0.0302,0.0303,0.0303,0.0303,0.0303,0,0.0133,0.0151,0.0193,0.0216,0.0231,0.0267,0.0295,0.0326,0.0364,0.0426,0.0457,0.0477,0.0505,0.0476,0.0419,0.0372,0.0348,0.0323,0.0297,0.029,0.0284,0.0282,0.028,0.0297,0.0297,0.0297,0.0297,0,0.0146,0.016,0.0187,0.0233,0.0265,0.0309,0.0352,0.0388,0.044,0.0486,0.0554,0.058,0.0556,0.052,0.0443,0.04,0.0332,0.0323,0.0328,0.0291,0.0285,0.028,0.0278,0.0297,0.0297,0.0297,0.0297,0.0297,0.0155,0.0176,0.0213,0.0256,0.0297,0.0353,0.0397,0.0453,0.0522,0.0598,0.0619,0.0643,0.0593,0.0498,0.0436,0.0348,0.0354,0.0306,0.0306,0.0305,0.0302,0.0297,0.031,0.031,0.031,0.031,0.031,0,0.0172,0.0195,0.0235,0.0291,0.034,0.0356,0.0439,0.0491,0.0579,0.0626,0.068,0.0618,0.0577,0.05,0.0383,0.0325,0.0304,0.0286,0.0278,0.0278,0.0279,0.0273,0.0274,0.0274,0.0273,0.0273,0,0,0.0183,0.022,0.0241,0.0319,0.0357,0.0427,0.0479,0.0557,0.0606,0.0659,0.0657,0.0671,0.0586,0.0491,0.0416,0.0346,0.0318,0.032,0.0356,0.0357,0.0357,0.0299,0.0292,0,0,0,0,0]}],[{"header":{"parameterUnit":"m.s-1","parameterCategory":2,"la1":30.2991,"la2":30.254,"lo1":-89.0895,"lo2":-89.0444,"dy":0.0017,"dx":0.0017,"nx":28,"ny":28,"refTime":"2025-11-21T09:00:00:Z","depth":"4","parameterNumber":2,"parameterNumberName":"U-component_of_CURRENTS"},"data":[0,0,0,0,0,0,0,0,0,0,0,0,0,0,0,0,0,0,0,0,0,0,0,0,0,0,0,0,0,0,0,0,0,0,0,0,0,0,0,0,0,0,0,0,0,0,0,0,0,0,0,0,0,0,0,0,0,0,0.0265,0.0266,0,0.0273,0.0273,0.0273,0.0296,0.0296,0.0297,0.0298,0.0326,0.0326,0.0326,0,0,0,0,0,0,0,0,0,0,0,0,0,0.0267,0.0267,0.0265,0.0266,0.0266,0.0273,0.0273,0.0273,0.0295,0.0296,0.0297,0.0298,0.0326,0.0326,0.0326,0,0,0,0,0,0,0,0,0,0,0,0,0,0.0267,0.0267,0.0265,0.0281,0.0282,0.0273,0.0273,0.0273,0.0295,0.0296,0.0298,0.0299,0.0326,0.0326,0.0326,0.0302,0,0,0.0326,0.0326,0,0,0,0,0,0,0,0,0.0267,0.0266,0.0278,0.028,0.0281,0.0288,0.0284,0.0285,0.0295,0.0287,0.0298,0.0299,0.0316,0.0317,0.0311,0.0303,0.0305,0.0326,0.0326,0.0326,0.0326,0,0,0,0,0,0,0,0.0267,0.0266,0.0265,0.0278,0.0281,0.0287,0.0288,0.0284,0.0293,0.0288,0.029,0.0296,0.0317,0.0311,0.0312,0.0305,0.0326,0.0326,0.0326,0.0326,0.0353,0.0354,0,0,0,0,0,0,0.0271,0.0266,0.0265,0.0266,0.0281,0.0286,0.0287,0.0282,0.0292,0.0296,0.0295,0.0297,0.031,0.0312,0.0313,0.0348,0.0326,0.0326,0.0326,0.0353,0.0354,0.0354,0,0,0,0,0,0,0.0271,0.027,0.0265,0.027,0.027,0.0285,0.0279,0.0281,0.0294,0.0298,0.0302,0.0308,0.0311,0.0313,0.0331,0.0347,0.0326,0.0326,0.0352,0.0353,0.0354,0.0379,0,0,0,0,0,0,0.0271,0.027,0.0269,0.0269,0.027,0.0274,0.0278,0.0281,0.0296,0.0299,0.031,0.0313,0.0312,0.0331,0.0331,0.0347,0.0326,0.0351,0.0352,0.0354,0.0377,0.0381,0.0384,0,0,0,0,0,0.027,0.027,0.0269,0.0269,0.0267,0.0274,0.0275,0.0287,0.0296,0.0303,0.0314,0.0313,0.034,0.0331,0.0331,0.0348,0.035,0.0352,0.0354,0.0376,0.038,0.0384,0,0,0,0,0,0,0.0275,0.0273,0.0271,0.0271,0.0277,0.028,0.0289,0.0294,0.0306,0.0313,0.0317,0.032,0.0344,0.0341,0.0331,0.0361,0.0347,0.0348,0.0363,0.0367,0.0371,0.036,0.0326,0,0,0,0,0,0.0273,0.027,0.0272,0.0274,0.0278,0.0283,0.0289,0.0297,0.0307,0.0313,0.0321,0.0333,0.0345,0.0354,0.036,0.037,0.0372,0.0383,0.0386,0.0389,0.0381,0.0416,0.0421,0.036,0.036,0.036,0,0,0.0276,0.0275,0.0274,0.0274,0.0279,0.0285,0.029,0.0303,0.0313,0.0313,0.0334,0.0344,0.0351,0.0369,0.0379,0.0371,0.0407,0.0391,0.0393,0.0384,0.0418,0.0424,0.0429,0.0361,0.0361,0.0361,0,0,0.0281,0.028,0.0279,0.0283,0.0294,0.0296,0.0305,0.0313,0.0326,0.0342,0.035,0.0368,0.0384,0.0391,0.0398,0.042,0.0424,0.043,0.0437,0.0471,0.0477,0.0481,0.0485,0.049,0.0431,0.0431,0.0431,0,0.0286,0.0281,0.0283,0.0285,0.0291,0.0304,0.0309,0.032,0.0336,0.0346,0.0357,0.0386,0.0393,0.0414,0.0424,0.0427,0.0441,0.0422,0.0476,0.048,0.0485,0.0488,0.0493,0.0433,0.0433,0.0432,0.0432,0,0.0287,0.0287,0.0292,0.0293,0.0301,0.031,0.0324,0.0339,0.0358,0.0368,0.04,0.0411,0.0432,0.0439,0.0438,0.0471,0.0468,0.0478,0.0465,0.0493,0.0494,0.0499,0.0435,0.0434,0.0434,0.0433,0,0,0.0288,0.0289,0.0294,0.0292,0.0305,0.0311,0.0332,0.035,0.0369,0.0393,0.0419,0.044,0.0455,0.0462,0.047,0.0489,0.0528,0.0497,0.0498,0.0498,0.0591,0.0507,0.0504,0.0559,0.056,0.0561,0.0577,0,0.029,0.029,0.0294,0.0302,0.0301,0.0317,0.0335,0.0355,0.0382,0.0411,0.0435,0.0465,0.0464,0.0483,0.0506,0.0523,0.0543,0.0521,0.0565,0.0565,0.0487,0.0508,0.0564,0.058,0.0581,0.0582,0.0583,0,0.0289,0.0288,0.0291,0.0297,0.0301,0.0315,0.0343,0.0362,0.0404,0.0423,0.0458,0.0486,0.0515,0.0521,0.0564,0.0556,0.0575,0.0584,0.0585,0.0499,0.0491,0.0549,0.0591,0.059,0.059,0.0589,0.0589,0,0.028,0.0286,0.0287,0.029,0.0301,0.0317,0.0336,0.0371,0.0389,0.0441,0.0464,0.0507,0.0536,0.0573,0.0593,0.0594,0.0634,0.0642,0.058,0.0574,0.0633,0.0628,0.068,0.068,0.068,0.068,0.068,0,0.0268,0.0274,0.0288,0.0287,0.0302,0.0317,0.0344,0.0368,0.0406,0.0424,0.0479,0.0497,0.0556,0.0588,0.0606,0.0596,0.0653,0.0574,0.0575,0.0642,0.0638,0.0636,0.0631,0.0681,0.068,0.068,0.068,0,0.0254,0.0263,0.0264,0.0282,0.0296,0.031,0.0347,0.0359,0.0403,0.0431,0.0452,0.0503,0.0532,0.0572,0.0617,0.0598,0.0605,0.0593,0.0641,0.0646,0.0517,0.0513,0.0521,0.0518,0.0516,0.0514,0.0512,0,0.0242,0.0241,0.026,0.0264,0.0278,0.0304,0.0317,0.0356,0.0366,0.042,0.0425,0.0475,0.0503,0.0502,0.054,0.0557,0.0555,0.055,0.0542,0.0501,0.0503,0.0502,0.0501,0.0508,0.0508,0.0507,0.0506,0,0.022,0.0234,0.0234,0.0244,0.0259,0.0262,0.0289,0.0293,0.033,0.0378,0.0392,0.0411,0.0432,0.0455,0.0471,0.0485,0.0546,0.0526,0.0531,0.0524,0.0487,0.049,0.0492,0.0498,0.05,0.05,0.0501,0,0.021,0.0205,0.021,0.0217,0.0228,0.0215,0.0232,0.0243,0.0262,0.0326,0.0324,0.0375,0.0421,0.0415,0.043,0.0432,0.0424,0.041,0.0421,0.043,0.039,0.033,0.029,0,0,0,0,0,0.0195,0.0187,0.0183,0.0175,0.0179,0.0189,0.0206,0.022,0.0265,0.026,0.0293,0.0312,0.0325,0.0348,0.0333,0.0373,0.0419,0.035,0.0406,0.0454,0.0463,0.0423,0,0,0,0,0,0,0.0182,0.0183,0.0172,0.0143,0.0133,0.0128,0.0138,0.0162,0.0165,0.0221,0.0237,0.0277,0.0304,0.0338,0.0326,0.0331,0.0351,0.0381,0.0379,0.0448,0.0457,0.0464,0.0427,0,0,0,0,0]},{"header":{"parameterUnit":"m.s-1","parameterCategory":2,"la1":30.2991,"la2":30.254,"lo1":-89.0895,"lo2":-89.0444,"dy":0.0017,"dx":0.0017,"nx":28,"ny":28,"refTime":"2025-11-21T09:00:00:Z","depth":"4","parameterNumber":3,"parameterNumberName":"V-component_of_CURRENTS"},"data":[0,0,0,0,0,0,0,0,0,0,0,0,0,0,0,0,0,0,0,0,0,0,0,0,0,0,0,0,0,0,0,0,0,0,0,0,0,0,0,0,0,0,0,0,0,0,0,0,0,0,0,0,0,0,0,0,0,0,0.0158,0.0158,0,0.0175,0.0175,0.0175,0.0174,0.0174,0.0174,0.0173,0.0188,0.0189,0.019,0,0,0,0,0,0,0,0,0,0,0,0,0,0.0122,0.0123,0.0158,0.0158,0.0159,0.0175,0.0175,0.0175,0.0174,0.0174,0.0174,0.0173,0.0188,0.0189,0.019,0,0,0,0,0,0,0,0,0,0,0,0,0,0.0138,0.0123,0.0158,0.016,0.016,0.0175,0.0175,0.0175,0.0174,0.0174,0.0173,0.0173,0.0188,0.0189,0.019,0.0204,0,0,0.0193,0.0193,0,0,0,0,0,0,0,0,0.0137,0.014,0.0159,0.016,0.016,0.0172,0.0168,0.0185,0.0174,0.0169,0.0173,0.0173,0.0183,0.0184,0.0189,0.0205,0.0205,0.0193,0.0194,0.0194,0.0194,0,0,0,0,0,0,0,0.0136,0.0139,0.0165,0.016,0.016,0.0158,0.016,0.0171,0.0178,0.017,0.0169,0.0171,0.0183,0.0188,0.0189,0.0206,0.0193,0.0194,0.0194,0.0195,0.023,0.023,0,0,0,0,0,0,0.0134,0.0138,0.0165,0.0166,0.0147,0.0159,0.0161,0.0169,0.0178,0.0179,0.0171,0.0171,0.0186,0.0188,0.0189,0.0209,0.0194,0.0195,0.0195,0.023,0.023,0.0231,0,0,0,0,0,0,0.0134,0.0137,0.0164,0.0151,0.0155,0.016,0.0168,0.0169,0.0173,0.0179,0.018,0.0174,0.0186,0.0188,0.0201,0.021,0.0195,0.0196,0.0229,0.023,0.023,0.0248,0,0,0,0,0,0,0.0133,0.0137,0.0143,0.0152,0.0155,0.0174,0.0169,0.017,0.0174,0.0174,0.0182,0.0183,0.0186,0.0199,0.0202,0.0211,0.0197,0.0229,0.023,0.023,0.0247,0.0249,0.025,0,0,0,0,0,0.0131,0.0142,0.0143,0.0146,0.0163,0.0174,0.0176,0.0178,0.0175,0.018,0.0185,0.0183,0.0205,0.02,0.0203,0.0213,0.0229,0.0229,0.023,0.0246,0.0248,0.025,0,0,0,0,0,0,0.0128,0.0143,0.0144,0.0158,0.0165,0.0174,0.0179,0.018,0.0188,0.0188,0.019,0.0192,0.0206,0.0207,0.0202,0.0224,0.0215,0.0217,0.0226,0.0229,0.0231,0.0234,0.0198,0,0,0,0,0,0.013,0.0144,0.0152,0.0165,0.0167,0.0173,0.0178,0.0181,0.0188,0.0191,0.0196,0.0203,0.0212,0.0218,0.0226,0.0241,0.0235,0.0247,0.0249,0.0251,0.0255,0.0253,0.0256,0.0233,0.0233,0.0233,0,0,0.0132,0.0143,0.015,0.0165,0.017,0.0181,0.0175,0.0185,0.0195,0.0192,0.0208,0.0211,0.0217,0.0233,0.0239,0.0235,0.0253,0.0252,0.0253,0.0257,0.0254,0.0257,0.0259,0.0234,0.0234,0.0233,0,0,0.0142,0.0151,0.0164,0.0172,0.0184,0.0189,0.0191,0.02,0.0205,0.022,0.022,0.0228,0.0243,0.025,0.0255,0.0273,0.0263,0.0273,0.0288,0.0286,0.0288,0.0289,0.0279,0.028,0.0275,0.0275,0.0275,0,0.0143,0.0162,0.0168,0.0182,0.0192,0.0192,0.0206,0.0213,0.0226,0.0232,0.0227,0.0249,0.0252,0.0272,0.0277,0.0278,0.0271,0.0279,0.0288,0.029,0.0291,0.0281,0.0281,0.0276,0.0276,0.0275,0.0275,0,0.0162,0.0177,0.0185,0.0205,0.0215,0.0228,0.0237,0.0246,0.025,0.0256,0.0273,0.0277,0.0289,0.0291,0.0291,0.0305,0.0294,0.029,0.0282,0.0294,0.0282,0.0283,0.0277,0.0277,0.0276,0.0276,0,0,0.0163,0.0193,0.0196,0.021,0.0229,0.024,0.0258,0.0274,0.0287,0.0294,0.0311,0.0323,0.032,0.0325,0.0324,0.0324,0.0324,0.0312,0.0312,0.0302,0.0313,0.0299,0.0298,0.032,0.032,0.0321,0.0299,0,0.0176,0.0206,0.0218,0.0247,0.0261,0.0272,0.029,0.0305,0.0313,0.0329,0.0331,0.0346,0.0334,0.0342,0.0339,0.0333,0.0326,0.033,0.0304,0.0303,0.0289,0.0298,0.0321,0.0299,0.0299,0.0299,0.0299,0,0.0188,0.0209,0.0238,0.0271,0.0278,0.0296,0.0323,0.0341,0.0359,0.0365,0.0374,0.0375,0.0383,0.0367,0.0356,0.0359,0.0337,0.0325,0.0324,0.0306,0.0289,0.0286,0.0299,0.0299,0.0299,0.0299,0.0299,0,0.0187,0.0222,0.0247,0.0259,0.0295,0.0311,0.033,0.0352,0.0372,0.0389,0.0402,0.0404,0.0411,0.039,0.0367,0.0362,0.0348,0.0336,0.0299,0.0297,0.0308,0.0307,0.0319,0.0319,0.0319,0.032,0.032,0,0.0196,0.0216,0.0249,0.0265,0.0298,0.0319,0.0354,0.0368,0.0397,0.0424,0.0422,0.0436,0.0416,0.0407,0.0377,0.0342,0.0353,0.0304,0.0294,0.0315,0.0314,0.0307,0.0306,0.0319,0.0319,0.0319,0.0319,0,0.0192,0.0214,0.0247,0.0287,0.03,0.0325,0.0373,0.0399,0.042,0.0454,0.0462,0.0466,0.045,0.0424,0.0391,0.0356,0.0324,0.0304,0.0328,0.032,0.0268,0.0268,0.026,0.0259,0.0259,0.0258,0.0258,0,0.0195,0.0211,0.0258,0.0282,0.0303,0.0342,0.0373,0.0406,0.0436,0.047,0.0487,0.0483,0.0477,0.0419,0.0386,0.0327,0.0311,0.0288,0.0277,0.0273,0.0264,0.0265,0.0265,0.0257,0.0257,0.0257,0.0257,0,0.0201,0.0217,0.0245,0.029,0.0327,0.0371,0.0414,0.0434,0.0475,0.0494,0.0501,0.0477,0.0456,0.041,0.0367,0.0323,0.0304,0.0282,0.0283,0.0272,0.0269,0.0261,0.0262,0.0255,0.0255,0.0255,0.0255,0,0.0206,0.0223,0.0259,0.03,0.0347,0.039,0.0412,0.0446,0.0474,0.0505,0.0504,0.0483,0.0474,0.0408,0.0371,0.0328,0.0307,0.028,0.028,0.0282,0.0294,0.0294,0.0281,0,0,0,0,0,0.0213,0.0232,0.0268,0.0315,0.0362,0.0389,0.044,0.046,0.0492,0.0494,0.0499,0.0477,0.0419,0.0399,0.0352,0.0357,0.0301,0.0298,0.027,0.0245,0.0247,0.0256,0,0,0,0,0,0,0.022,0.025,0.0265,0.0321,0.0353,0.0406,0.0439,0.046,0.0462,0.0481,0.0452,0.0448,0.0395,0.0442,0.0344,0.0334,0.0305,0.0278,0.0277,0.0244,0.0246,0.0247,0.0257,0,0,0,0,0]}]]